Location: ?ejkovice
(49.0137°N, 14.3821°E)
Time: 12:41:56
(UTC+00:00)

Cosmos 968 Rocket - Pass Details

Date: 07 August 2024
Orbit: 738 x 767 km, 74.0° (Epoch: 15 September)

Event Time Altitude Azimuth Distance (km) Brightness Sun altitude
Rises 20:22:00 0° 336° (NNW) 3,231 8.2 -15.2°
Reaches altitude 10° 20:24:23 10° 336° (NNW) 2,297 7.2 -15.5°
Maximum altitude 20:29:37 87° 248° (WSW) 761 3.4 -16.0°
Enters shadow 20:32:37 26° 160° (SSE) 1,458 4.4 -16.3°
